Location: Tauranga
(37.6860°S, 176.1670°E)
Time: 23:47:21
(UTC+13:00)

HJ-1C - Pass Details

Date: 24 January 2019
Orbit: 435 x 449 km, 97.2° (Epoch: 18 October)

Event Time Altitude Azimuth Distance (km) Brightness Sun altitude
Rises 21:01:16 0° 165° (SSE) 2,491 7.4 -5.5°
Reaches altitude 10° 21:03:22 10° 161° (SSE) 1,606 6.4 -5.9°
Maximum altitude 21:06:46 60° 80° (E) 522 3.4 -6.5°
Drops below altitude 10° 21:10:06 10° 359° (N) 1,568 5.9 -7.0°
Sets 21:12:07 0° 355° (N) 2,426 6.9 -7.4°
